This is the latest recevied weather packets stored in our database for station/object WB8ZGM-13. If no packets are shown the sender has not sent any weather packets the latest 10 day(s).
| Time | Temp. | Humidity | Pressure | Rain* | Wind** | Luminosity | Snow |
|---|---|---|---|---|---|---|---|
| 1777883506 | 10° C | 84% | 996.7 hPa | 0 mm | - | - | - |
| 1777882575 | 10° C | 82% | 996.8 hPa | 0 mm | - | - | - |
| 1777881646 | 10.56° C | 81% | 997 hPa | 0 mm | - | - | - |
| 1777880716 | 10° C | 83% | 997 hPa | 0 mm | - | - | - |
| 1777879815 | 9.44° C | 87% | 997.1 hPa | 0 mm | - | - | - |
| 1777878915 | 8.89° C | 89% | 997.2 hPa | 0 mm | - | - | - |
| 1777878015 | 8.89° C | 89% | 997.4 hPa | 0 mm | - | - | - |
| 1777877115 | 9.44° C | 86% | 997.3 hPa | 0 mm | - | - | - |
| 1777876185 | 10° C | 84% | 997.4 hPa | 0 mm | - | - | - |
| 1777875255 | 10.56° C | 80% | 997.7 hPa | 0 mm | - | - | - |
| 1777874325 | 11.67° C | 77% | 997.7 hPa | 0 mm | - | - | - |
| 1777873395 | 12.22° C | 74% | 997.4 hPa | 0 mm | - | - | - |
| 1777872465 | 12.78° C | 71% | 997.3 hPa | 0 mm | - | - | - |
| 1777871565 | 12.22° C | 75% | 997.5 hPa | 0 mm | - | - | - |
| 1777870665 | 10.56° C | 81% | 997.7 hPa | 0 mm | - | - | - |
| 1777869735 | 7.78° C | 95% | 997.8 hPa | 0 mm | - | - | - |
| 1777868805 | 8.33° C | 90% | 998.1 hPa | 0 mm | - | - | - |
| 1777867875 | 8.33° C | 90% | 998.3 hPa | 0 mm | - | - | - |
| 1777866945 | 8.33° C | 90% | 998.3 hPa | 0 mm | - | - | - |
| 1777866015 | 8.89° C | 89% | 998.2 hPa | 0 mm | - | - | - |
| 1777865085 | 9.44° C | 84% | 998.4 hPa | 0 mm | - | - | - |
| 1777864155 | 9.44° C | 82% | 998.4 hPa | 0 mm | - | - | - |
| 1777863225 | 10° C | 80% | 998.4 hPa | 0 mm | - | - | - |
| 1777862295 | 10.56° C | 77% | 998.4 hPa | 0 mm | - | - | - |
| 1777861395 | 11.11° C | 76% | 998.2 hPa | 0 mm | - | - | - |
* Rain latest hour (hover to see other rain measurements)
** Current wind speed in m/s (hover to see current wind gust speed)